Location: Krasnoyarskiy Pitomnik
(51.1333°N, 71.6167°E)
Time: 22:05:45
(UTC+00:00)

A-11 Canister half - Pass Details

Date: 25 April 2024
Orbit: 1525 x 1683 km, 47.3° (Epoch: 19 May)

Event Time Altitude Azimuth Distance (km) Brightness Sun altitude
Rises 02:56:01 0° 266° (W) 4,896 11.1 26.6°
Reaches altitude 10° 02:59:09 10° 265° (W) 3,923 10.7 27.1°
Maximum altitude 03:09:12 72° 184° (S) 1,754 9.9 28.7°
Drops below altitude 10° 03:19:17 10° 103° (ESE) 3,936 12.8 30.2°
Sets 03:22:26 0° 101° (E) 4,914 12.8 30.6°
